FW0683 Weather Reports


time (UTC)temp
C
wind
direction
speed
KPH
gust
KPH
rain 1hr
cm
rain 24hr
cm
rain mn
cm
humidity
%
barometer
mb
20260506153044 21 230 0.0 4.8 0.00 0.00 0.00 61 1011.9
20260506151545 21 217 0.0 11.3 0.00 0.00 0.00 61 1012.1
20260506150050 21 288 0.0 12.9 0.00 0.00 0.00 62 1012.3
20260506144551 21 28 0.0 9.7 0.00 0.00 0.00 62 1012.1
20260506143042 21 82 0.0 9.7 0.00 0.00 0.00 63 1012.0
20260506141539 20 1 0.0 9.7 0.00 0.00 0.00 65 1011.8
20260506140048 19 110 0.0 4.8 0.00 0.00 0.00 69 1011.9
20260506134537 19 96 0.0 11.3 0.00 0.00 0.00 68 1012.2
20260506133043 18 261 0.0 3.2 0.00 0.00 0.00 69 1012.5
20260506131535 18 264 0.0 3.2 0.00 0.00 0.00 69 1012.3
20260506130030 18 96 0.0 19.3 0.00 0.00 0.00 70 1012.4
20260506124529 18 229 0.0 1.6 0.00 0.00 0.00 70 1012.2
20260506123029 18 239 0.0 4.8 0.00 0.00 0.00 70 1012.6
20260506121530 17 292 0.0 4.8 0.00 0.00 0.00 72 1012.5
20260506120036 17 260 0.0 14.5 0.00 0.00 0.00 73 1012.8
20260506114526 17 266 0.0 1.6 0.00 0.00 0.00 73 1012.7
20260506113026 17 29 0.0 3.2 0.00 0.00 0.00 74 1012.9
20260506111526 16 283 0.0 1.6 0.00 0.00 0.00 74 1012.8
20260506110025 16 253 0.0 0.0 0.00 0.00 0.00 75 1013.0
20260506104523 16 257 0.0 1.6 0.00 0.00 0.00 75 1012.9
20260506103030 16 342 0.0 0.0 0.00 0.00 0.00 75 1013.0
20260506101533 16 326 0.0 0.0 0.00 0.00 0.00 75 1013.0
20260506100029 16 101 0.0 0.0 0.00 0.00 0.00 75 1013.0
20260506094521 16 24 0.0 0.0 0.00 0.00 0.00 74 1012.8
20260506093019 16 248 0.0 0.0 0.00 0.00 0.00 74 1013.0
20260506091519 16 76 0.0 4.8 0.00 0.00 0.00 73 1012.8
20260506090016 16 249 0.0 1.6 0.00 0.00 0.00 72 1012.8
20260506084518 16 212 0.0 3.2 0.00 0.00 0.00 72 1012.8
20260506083014 16 164 0.0 1.6 0.00 0.00 0.00 71 1012.8
20260506081517 16 229 0.0 9.7 0.00 0.00 0.00 70 1012.8
20260506073012 17 3 0.0 0.0 0.00 0.00 0.00 67 1012.5
20260506071510 17 141 0.0 1.6 0.00 0.00 0.00 67 1012.4
20260506061506 17 211 0.0 0.0 0.00 0.00 0.00 65 1012.2
20260506044658 17 241 0.0 1.6 0.00 0.00 0.00 62 1012.8
20260506043054 17 311 0.0 1.6 0.00 0.00 0.00 60 1012.8
20260506041554 18 248 0.0 1.6 0.00 0.00 0.00 59 1012.7
20260506040049 18 198 0.0 8.0 0.00 0.00 0.00 58 1012.6
20260506034549 18 3 0.0 6.4 0.00 0.00 0.00 58 1012.4
20260506033052 18 95 0.0 0.0 0.00 0.00 0.00 57 1012.4
20260506031549 19 149 0.0 3.2 0.00 0.00 0.00 57 1012.5
20260506030048 19 252 0.0 9.7 0.00 0.00 0.00 56 1012.3
20260506024549 20 304 0.0 6.4 0.00 0.00 0.00 55 1012.3
20260506023056 20 110 0.0 1.6 0.00 0.00 0.00 53 1012.2
20260506021555 20 236 0.0 6.4 0.00 0.00 0.00 51 1012.3
20260506020048 21 113 0.0 4.8 0.00 0.00 0.00 50 1012.3
20260506014546 21 309 0.0 1.6 0.00 0.00 0.00 49 1012.3
20260506013045 21 271 0.0 1.6 0.00 0.00 0.00 50 1012.2
20260506011545 21 102 0.0 0.0 0.00 0.00 0.00 51 1012.3
20260506010054 21 349 0.0 0.0 0.00 0.00 0.00 50 1012.3
20260506004549 21 141 0.0 1.6 0.00 0.00 0.00 49 1011.4
20260506003044 22 288 0.0 1.6 0.00 0.00 0.00 48 1010.9
20260506001547 22 113 0.0 1.6 0.00 0.00 0.00 47 1010.6
20260506000042 23 314 0.0 16.1 0.00 0.00 0.00 42 1010.2
20260505234601 23 226 0.0 12.9 0.00 0.00 0.00 42 1009.9
20260505233043 23 205 0.0 11.3 0.00 0.00 0.00 41 1009.6
20260505231541 24 196 0.0 22.5 0.00 0.00 0.00 40 1009.2
20260505230039 25 230 0.0 8.0 0.00 0.00 0.00 41 1008.9
20260505224540 25 33 0.0 17.7 0.00 0.00 0.00 38 1008.8
20260505223040 26 265 0.0 3.2 0.00 0.00 0.00 38 1008.5
20260505221539 26 288 1.6 20.9 0.00 0.00 0.00 37 1008.2
20260505220041 26 79 0.0 6.4 0.00 0.00 0.00 37 1008.0
20260505214559 27 113 1.6 17.7 0.00 0.00 0.00 35 1007.9
20260505213037 27 239 0.0 14.5 0.00 0.00 0.00 33 1007.7
20260505211535 27 112 3.2 16.1 0.00 0.00 0.00 33 1007.6
20260505210033 27 236 1.6 14.5 0.00 0.00 0.00 35 1007.7
20260505204532 27 337 3.2 32.2 0.00 0.00 0.00 35 1007.5
20260505203036 27 211 0.0 17.7 0.00 0.00 0.00 34 1007.6
20260505201536 28 115 0.0 14.5 0.00 0.00 0.00 33 1007.8
20260505200028 27 233 0.0 12.9 0.00 0.00 0.00 35 1007.9
20260505194528 28 136 0.0 29.0 0.00 0.00 0.00 34 1008.1
20260505193026 28 257 0.0 16.1 0.00 0.00 0.00 33 1008.0
20260505191524 28 219 1.6 20.9 0.00 0.00 0.00 30 1008.5
20260505190024 29 269 0.0 16.1 0.00 0.00 0.00 33 1008.7
20260505184523 29 216 1.6 17.7 0.00 0.00 0.00 31 1009.1
20260505183019 28 152 0.0 17.7 0.00 0.00 0.00 33 1009.1
20260505181517 28 330 0.0 20.9 0.00 0.00 0.00 33 1009.4
20260505180027 28 257 0.0 17.7 0.00 0.00 0.00 35 1009.4
20260505174525 28 133 0.0 11.3 0.00 0.00 0.00 36 1009.6
20260505173015 27 142 0.0 20.9 0.00 0.00 0.00 36 1010.1
20260505171512 27 212 1.6 30.6 0.00 0.00 0.00 37 1010.2
20260505170006 27 27 0.0 9.7 0.00 0.00 0.00 38 1010.6
20260505164504 27 241 0.0 9.7 0.00 0.00 0.00 38 1010.7
20260505163002 27 293 0.0 8.0 0.00 0.00 0.00 37 1010.9
20260505161621 27 155 0.0 1.6 0.00 0.00 0.00 39 1011.1
20260505160104 26 321 0.0 4.8 0.00 0.00 0.00 40 1011.6